STARLINK-38100, 100149

Orbit data source: Space-Track

STARLINK-38100, 100149 is a payload satellite owned by SpaceX/Seattle (US) in SSO that was launched on Sat, 25 Jul 2026 UTC launched from the Air Force Western Test Range (AFWTR). Payload-class satellites include a variety of spacecraft equipped with specific instruments for various scientific and technological missions. These include communications satellites like Starlink; space stations such as the ISS; scientific satellites like the Hubble; Earth observation satellites from companies like Planet Labs, Umbra, and HawkEye 360; GPS; miniature CubeSats for education and research; and military/defense satellites.

Loading next visibility...
Identifier
100149, 2026-171B
Orbit
SSO
Country
Flag of USUS
Related business
Manufacturer
SpaceX/Seattle
Mission
Operational spacecraft
Bus & Motor
STARLINK V2MO, Unknown motor
Mass
575 kg wet, ~530 kg dry
Launch date (UTC)
2026-07-25 (3 weeks ago)
Launch vehicle
Unknown
Launch site
Air Force Western Test Range (AFWTR)
Object type
Payload
Rocket body
Debris
Shape & HBR
BOX + PAN, 17.7 m
Radar Cross Section
RCS unknown

Expand to show TLE details & history
Last TLE update: 7 hours ago

TLE from 7 hours ago
0 STARLINK-38100
1 A0149U 26171B   26227.64503074 -.00814536  00000-0 -56348-2 0  9996
2 A0149  97.2836 259.5731 0001118  58.3401 301.7974 15.76627826  4572
Epoch: 2026-08-15T15:28Z
TLE epoch observation values (Epoch: 2026-08-15T15:28:50.655Z)
Latitude
-0.00005°
Longitude
63.30911°
Altitude
342.777 km
Speed
7.703 km/s
True Right ascension
17h 18m 17s
True Declination
0° 00' 00"
Sunlit
Object was in full shadow at epoch
Visualization orbit readout
Latitude
Unknown
Longitude
Unknown
Altitude
Unknown
Speed
Unknown
Apparent Right ascension
Unknown
Apparent Declination
Unknown
Sunlit
N/A
Visualization observer readout
Local Sidereal Time
13:11:34
Azimuth
Unknown
Elevation
Unknown
Doppler factor
Unknown
Orbital elements
Apogee altitude
337.639 km
Perigee altitude
336.138 km
Semi-major axis
6,715.025 km
Eccentricity
0.00011
Inclination
97.2836°
RAAN
259.5731°
Arg. of periapsis
58.3401°
True anomaly
301.78651°
Mean anomaly
301.7974°
Eccentric anomaly
301.79196°
Mean motion
3.94432 °/min
Orbital period
91.27 mins
BSTAR
-0.0056348
Loading maneuver chart data...
Computing Atmospheric mass density...
Loading historical data...
Loading historical data...
Loading historical data...
Loading historical data...
Loading historical data...
Loading historical data...
Loading historical data...

Documentation

Showing up to 5 results
|